FW6267 Weather Reports


Display with metric or nautical units.
time (UTC)temp
F
wind
direction
speed
MPH
gust
MPH
rain 1hr
in
rain 24hr
in
rain mn
in
humidity
%
barometer
mb
20260510150104 50 222 4.0 10.0 0.10 0.17 0.11 89 1011.8
20260510145556 50 234 4.0 10.0 0.09 0.16 0.10 89 1011.8
20260510145100 51 220 4.0 11.0 0.08 0.15 0.09 88 1011.8
20260510144557 51 247 6.0 11.0 0.06 0.13 0.07 89 1011.9
20260510144057 51 224 4.0 9.0 0.03 0.10 0.04 89 1011.8
20260510143558 52 251 1.0 6.0 0.00 0.07 0.01 89 1011.6
20260510143058 52 0 0.0 2.0 0.00 0.07 0.01 88 1011.0
20260510142559 52 0 0.0 2.0 0.00 0.07 0.01 88 1010.9
20260510142100 52 0 0.0 2.0 0.00 0.07 0.01 87 1010.8
20260510141559 52 0 0.0 4.0 0.00 0.07 0.01 87 1011.0
20260510141059 52 0 0.0 4.0 0.00 0.07 0.01 87 1011.0
20260510140602 53 0 1.0 5.0 0.00 0.07 0.01 87 1011.1
20260510140058 53 88 1.0 5.0 0.00 0.07 0.01 87 1011.2
20260510135600 53 161 1.0 5.0 0.00 0.07 0.01 88 1011.0
20260510135057 53 115 0.0 5.0 0.00 0.07 0.01 88 1010.9
20260510134600 53 208 1.0 6.0 0.00 0.07 0.01 88 1011.1
20260510134059 53 0 1.0 6.0 0.00 0.07 0.01 89 1011.0
20260510133558 53 213 1.0 5.0 0.00 0.07 0.01 89 1011.0
20260510133100 52 213 1.0 5.0 0.00 0.07 0.01 90 1011.0
20260510132559 52 209 0.0 4.0 0.00 0.07 0.01 91 1011.1
20260510132100 52 0 1.0 4.0 0.00 0.07 0.01 91 1011.0
20260510131558 52 102 0.0 6.0 0.00 0.07 0.01 91 1011.0
20260510131058 52 212 1.0 8.0 0.00 0.07 0.01 92 1011.0
20260510130601 51 200 1.0 8.0 0.00 0.07 0.01 92 1011.0
20260510130057 51 234 1.0 5.0 0.00 0.07 0.01 93 1011.0
20260510125557 50 171 0.0 6.0 0.00 0.07 0.01 93 1011.0
20260510125058 50 107 2.0 6.0 0.00 0.07 0.01 93 1010.6
20260510124617 50 74 2.0 6.0 0.00 0.07 0.01 93 1010.8
20260510124057 50 53 1.0 4.0 0.00 0.07 0.01 94 1010.8
20260510123556 49 126 0.0 4.0 0.00 0.07 0.01 94 1010.9
20260510123057 49 143 0.0 6.0 0.00 0.07 0.01 94 1011.1
20260510122600 49 0 0.0 6.0 0.00 0.07 0.01 94 1010.9
20260510122059 49 113 1.0 4.0 0.00 0.07 0.01 94 1010.9
20260510121558 49 121 0.0 4.0 0.00 0.07 0.01 94 1011.0
20260510121056 48 194 1.0 7.0 0.00 0.07 0.01 94 1010.9
20260510120557 48 70 0.0 7.0 0.00 0.07 0.01 94 1010.9
20260510120100 48 125 0.0 4.0 0.00 0.07 0.01 94 1010.7
20260510115602 48 0 0.0 4.0 0.00 0.07 0.01 94 1010.9
20260510115057 48 268 0.0 7.0 0.00 0.07 0.01 94 1010.9
20260510114607 48 330 1.0 7.0 0.00 0.07 0.01 94 1010.7
20260510114100 48 161 1.0 7.0 0.00 0.07 0.01 95 1010.6
20260510113600 48 0 0.0 8.0 0.00 0.07 0.01 95 1010.4
20260510113102 47 112 0.0 8.0 0.00 0.07 0.01 94 1010.2
20260510112600 46 0 2.0 8.0 0.00 0.07 0.01 94 1010.1
20260510112057 46 94 1.0 6.0 0.00 0.07 0.01 94 1010.2
20260510111559 46 168 0.0 4.0 0.00 0.07 0.01 94 1010.2
20260510111101 46 151 1.0 7.0 0.00 0.07 0.01 94 1010.4
20260510110558 46 182 1.0 7.0 0.00 0.07 0.01 94 1010.5
20260510110104 46 266 1.0 5.0 0.00 0.07 0.01 94 1010.4
20260510105556 46 228 1.0 6.0 0.00 0.07 0.01 94 1010.2
20260510105100 46 125 1.0 7.0 0.00 0.07 0.01 94 1010.1
20260510104619 45 0 1.0 7.0 0.00 0.07 0.01 94 1009.9
20260510104100 45 0 0.0 4.0 0.00 0.07 0.01 94 1009.6
20260510103557 45 200 0.0 4.0 0.00 0.07 0.01 94 1009.7
20260510103101 45 202 0.0 3.0 0.00 0.07 0.01 94 1009.9
20260510102600 45 203 0.0 3.0 0.00 0.07 0.01 94 1009.7
20260510102056 45 221 0.0 1.0 0.00 0.07 0.01 94 1009.7
20260510101558 45 0 0.0 1.0 0.00 0.07 0.01 94 1009.7
20260510101058 45 0 0.0 3.0 0.00 0.07 0.01 94 1009.6
20260510100557 45 0 0.0 4.0 0.00 0.07 0.01 94 1009.7
20260510100100 45 247 2.0 4.0 0.00 0.07 0.01 94 1009.7
20260510095557 45 254 0.0 3.0 0.00 0.07 0.01 94 1009.6
20260510095059 45 295 1.0 3.0 0.00 0.07 0.01 94 1009.5
20260510094600 45 0 0.0 4.0 0.00 0.07 0.01 94 1009.3
20260510094101 45 171 0.0 4.0 0.00 0.07 0.01 94 1009.3
20260510093558 44 174 0.0 2.0 0.00 0.07 0.01 94 1009.2
20260510093058 44 0 0.0 4.0 0.00 0.07 0.01 94 1009.3
20260510092558 45 0 1.0 4.0 0.00 0.07 0.01 94 1009.3
20260510092059 45 0 0.0 2.0 0.00 0.07 0.01 94 1009.2
20260510091556 45 0 0.0 2.0 0.00 0.07 0.01 94 1009.2
20260510091100 45 202 0.0 4.0 0.00 0.07 0.01 94 1009.1
20260510090600 45 202 0.0 4.0 0.00 0.07 0.01 94 1009.1
20260510090109 45 273 1.0 5.0 0.00 0.07 0.01 94 1009.2
20260510085601 45 0 1.0 6.0 0.01 0.07 0.01 94 1009.1
20260510085100 45 86 1.0 6.0 0.01 0.07 0.01 94 1008.7
20260510084602 45 89 2.0 9.0 0.01 0.07 0.01 94 1008.7
20260510084059 45 105 3.0 9.0 0.01 0.07 0.01 94 1008.5
20260510083600 45 120 4.0 9.0 0.01 0.07 0.01 94 1008.7
20260510083105 46 120 2.0 9.0 0.01 0.07 0.01 94 1008.9
20260510082558 46 118 2.0 9.0 0.01 0.07 0.01 94 1009.2
20260510082058 46 87 2.0 6.0 0.01 0.07 0.01 94 1009.4
20260510081557 46 151 1.0 5.0 0.01 0.07 0.01 94 1009.5
20260510081057 46 236 2.0 5.0 0.01 0.07 0.01 94 1009.6
20260510080557 45 216 0.0 5.0 0.01 0.07 0.01 94 1009.5
20260510075557 45 163 1.0 5.0 0.00 0.06 0.00 94 1009.5
20260510075102 45 0 0.0 5.0 0.00 0.06 0.00 94 1009.6
20260510074625 45 173 1.0 4.0 0.00 0.06 0.00 94 1009.6
20260510074100 45 0 1.0 7.0 0.00 0.06 0.00 94 1009.5
20260510073556 45 233 0.0 7.0 0.00 0.06 0.00 94 1009.4
20260510073058 45 0 1.0 8.0 0.00 0.06 0.00 94 1009.4
20260510072557 45 175 1.0 8.0 0.00 0.06 0.00 94 1009.4
20260510072100 45 0 1.0 4.0 0.00 0.06 0.00 94 1009.3
20260510071602 45 114 0.0 7.0 0.00 0.06 0.00 94 1009.4
20260510071059 45 93 1.0 7.0 0.00 0.06 0.00 94 1009.4
20260510070558 45 84 0.0 8.0 0.00 0.06 0.00 94 1009.4
20260510065600 45 93 1.0 8.0 0.00 0.06 0.00 94 1009.6
20260510065059 45 269 0.0 4.0 0.00 0.06 0.00 94 1009.8
20260510064611 45 209 0.0 4.0 0.00 0.06 0.00 94 1009.7
20260510064057 45 209 0.0 6.0 0.00 0.06 0.00 94 1009.7
20260510063600 45 96 1.0 7.0 0.00 0.06 0.00 94 1009.5
20260510063102 45 30 1.0 7.0 0.00 0.06 0.00 94 1009.5
20260510062557 45 98 0.0 4.0 0.00 0.06 0.00 94 1009.6
20260510062056 45 0 1.0 7.0 0.00 0.06 0.00 94 1009.7
20260510061558 45 136 0.0 7.0 0.00 0.06 0.00 94 1009.7
20260510061058 45 54 1.0 9.0 0.00 0.06 0.00 94 1009.7
20260510060558 45 229 1.0 9.0 0.00 0.06 0.00 94 1009.7
20260510060100 45 111 1.0 4.0 0.00 0.06 0.00 94 1009.7
20260510055557 45 328 0.0 3.0 0.00 0.06 0.00 94 1009.7
20260510055057 45 0 0.0 3.0 0.00 0.06 0.00 94 1009.9
20260510054559 45 0 0.0 3.0 0.00 0.06 0.00 94 1009.9
20260510054058 45 0 0.0 3.0 0.00 0.06 0.00 94 1009.9
20260510053557 45 0 0.0 6.0 0.00 0.06 0.00 94 1009.9
20260510053058 45 117 1.0 6.0 0.00 0.06 0.00 93 1009.9
20260510052602 45 117 1.0 4.0 0.00 0.06 0.00 93 1010.0
20260510052058 45 0 1.0 5.0 0.00 0.06 0.00 94 1009.9
20260510051603 44 142 1.0 7.0 0.00 0.06 0.00 94 1009.7
20260510051057 44 286 1.0 7.0 0.00 0.06 0.00 94 1009.8
20260510050557 44 231 2.0 7.0 0.00 0.06 0.00 94 1009.7
20260510050101 44 237 1.0 7.0 0.00 0.06 0.00 94 1009.8
20260510045557 44 360 0.0 9.0 0.00 0.06 0.00 94 1010.0
20260510045057 44 0 1.0 9.0 0.00 0.06 0.00 93 1010.0
20260510044602 44 26 1.0 6.0 0.00 0.06 0.00 93 1010.1
20260510044056 44 269 2.0 7.0 0.00 0.06 0.00 93 1010.0
20260510043556 44 106 1.0 8.0 0.00 0.06 0.00 93 1010.1
20260510043103 44 0 1.0 12.0 0.00 0.06 0.00 93 1010.1
20260510042600 44 113 2.0 12.0 0.00 0.06 0.00 93 1009.9
20260510042057 44 61 1.0 5.0 0.00 0.06 0.00 93 1009.9
20260510041610 44 0 0.0 5.0 0.00 0.06 0.00 93 1009.7
20260510041057 44 146 1.0 5.0 0.00 0.06 0.00 93 1009.7
20260510040558 44 0 0.0 6.0 0.00 0.06 0.00 93 1009.9
20260510040058 44 218 1.0 6.0 0.00 0.06 0.00 93 1009.9
20260510035556 44 261 1.0 7.0 0.00 0.06 0.06 93 1009.9
20260510035056 44 288 1.0 7.0 0.00 0.06 0.06 93 1010.0
20260510034600 44 0 2.0 5.0 0.00 0.06 0.06 93 1010.1
20260510034057 44 0 0.0 4.0 0.00 0.06 0.06 93 1010.1
20260510033559 44 196 1.0 8.0 0.00 0.06 0.06 93 1010.1
20260510033101 44 166 2.0 8.0 0.00 0.06 0.06 93 1010.1
20260510032559 44 0 1.0 6.0 0.00 0.06 0.06 93 1010.0
20260510032100 44 273 1.0 11.0 0.00 0.06 0.06 93 1010.0
20260510031601 44 276 2.0 11.0 0.00 0.06 0.06 93 1010.1
20260510031057 44 164 1.0 8.0 0.00 0.06 0.06 93 1010.0
20260510030557 44 0 0.0 7.0 0.00 0.06 0.06 93 1010.2
20260510030059 44 236 0.0 7.0 0.00 0.06 0.06 93 1010.0
20260510025558 44 130 1.0 6.0 0.00 0.06 0.06 93 1010.1
20260510025101 44 173 1.0 6.0 0.00 0.06 0.06 93 1010.2
20260510024601 44 56 1.0 4.0 0.00 0.06 0.06 93 1010.2
20260510024058 44 0 0.0 4.0 0.00 0.06 0.06 93 1010.2
20260510023556 44 349 0.0 5.0 0.00 0.06 0.06 93 1010.1
20260510023056 44 64 0.0 8.0 0.00 0.06 0.06 93 1010.0
20260510022559 44 199 2.0 8.0 0.00 0.06 0.06 93 1010.2
20260510022058 44 0 1.0 8.0 0.00 0.06 0.06 93 1010.1
20260510021558 44 184 1.0 7.0 0.00 0.06 0.06 93 1010.2
20260510021101 44 167 1.0 6.0 0.00 0.06 0.06 93 1010.3
20260510020557 44 133 1.0 6.0 0.00 0.06 0.06 93 1010.1
20260510020059 44 0 0.0 5.0 0.00 0.06 0.06 93 1010.0
20260510015557 44 138 0.0 7.0 0.00 0.06 0.06 93 1010.2
20260510015058 44 0 0.0 7.0 0.00 0.06 0.06 93 1010.5
20260510014556 44 209 1.0 6.0 0.00 0.06 0.06 93 1010.6
20260510014057 44 225 1.0 7.0 0.00 0.06 0.06 93 1010.5
20260510013557 44 209 0.0 7.0 0.00 0.06 0.06 92 1010.6
20260510013108 44 156 1.0 6.0 0.00 0.06 0.06 93 1010.6
20260510012602 44 180 1.0 6.0 0.00 0.06 0.06 92 1010.5
20260510012058 44 0 0.0 6.0 0.00 0.06 0.06 92 1010.7
20260510011557 44 0 1.0 6.0 0.00 0.06 0.06 92 1010.9
20260510011057 44 0 0.0 6.0 0.00 0.06 0.06 92 1010.8
20260510010600 44 186 0.0 6.0 0.00 0.06 0.06 92 1010.8
20260510010110 44 314 1.0 6.0 0.00 0.06 0.06 92 1010.8
20260510005557 44 0 1.0 4.0 0.00 0.06 0.06 92 1010.6
20260510005059 44 98 0.0 4.0 0.00 0.06 0.06 92 1010.6
20260510004604 44 0 1.0 6.0 0.00 0.06 0.06 92 1010.6
20260510004057 44 101 0.0 6.0 0.00 0.06 0.06 92 1010.5
20260510003557 44 210 0.0 5.0 0.00 0.06 0.06 92 1010.5
20260510003059 44 197 1.0 5.0 0.00 0.06 0.06 92 1010.3
20260510002600 44 0 1.0 5.0 0.00 0.06 0.06 92 1010.3
20260510002057 44 0 1.0 6.0 0.00 0.06 0.06 92 1010.4
20260510001556 44 5 1.0 6.0 0.00 0.06 0.06 92 1010.3
20260510001059 44 229 1.0 8.0 0.00 0.06 0.06 92 1010.3
20260510000557 44 78 0.0 8.0 0.00 0.06 0.06 92 1010.2
20260510000119 44 0 0.0 4.0 0.00 0.06 0.06 92 1010.1
20260509235557 44 0 0.0 4.0 0.00 0.06 0.06 92 1009.9
20260509235057 44 124 1.0 5.0 0.00 0.06 0.06 92 1010.0
20260509234606 44 104 0.0 5.0 0.00 0.06 0.06 92 1010.0
20260509234100 44 0 2.0 5.0 0.00 0.06 0.06 92 1010.1
20260509233601 44 0 0.0 7.0 0.00 0.06 0.06 92 1010.2
20260509233059 44 151 1.0 7.0 0.00 0.06 0.06 92 1010.2
20260509232557 44 298 1.0 7.0 0.00 0.06 0.06 92 1010.1
20260509232058 44 76 0.0 4.0 0.00 0.06 0.06 92 1010.1
20260509231558 44 0 1.0 4.0 0.00 0.06 0.06 92 1010.0
20260509231057 44 37 1.0 4.0 0.00 0.06 0.06 92 1010.0
20260509230557 44 0 1.0 8.0 0.00 0.06 0.06 92 1010.0
20260509225557 44 0 1.0 8.0 0.00 0.06 0.06 92 1009.9
20260509225057 44 271 1.0 8.0 0.00 0.06 0.06 92 1009.9
20260509224559 44 0 0.0 7.0 0.00 0.06 0.06 92 1009.9
20260509224100 44 328 0.0 7.0 0.00 0.06 0.06 92 1009.9
20260509223559 44 105 1.0 7.0 0.00 0.06 0.06 92 1010.0
20260509223100 45 197 1.0 7.0 0.00 0.06 0.06 92 1009.9
20260509222558 45 0 1.0 7.0 0.00 0.06 0.06 92 1009.9
20260509222057 44 278 1.0 7.0 0.00 0.06 0.06 92 1009.9
20260509221611 44 254 1.0 7.0 0.00 0.06 0.06 92 1010.0
20260509221057 44 200 1.0 7.0 0.00 0.06 0.06 92 1010.1
20260509220559 44 196 1.0 7.0 0.00 0.06 0.06 92 1010.2
20260509220107 44 0 0.0 7.0 0.00 0.06 0.06 92 1010.2
20260509215558 44 107 1.0 8.0 0.00 0.06 0.06 92 1010.2
20260509215058 44 0 2.0 8.0 0.00 0.06 0.06 92 1010.2
20260509214558 44 0 0.0 7.0 0.01 0.06 0.06 92 1010.3
20260509214057 44 172 1.0 7.0 0.01 0.06 0.06 91 1010.3
20260509213557 44 130 0.0 4.0 0.01 0.06 0.06 92 1010.2
20260509213102 44 222 0.0 5.0 0.01 0.06 0.06 91 1010.4
20260509212558 44 0 1.0 6.0 0.01 0.06 0.06 92 1010.3
20260509212059 44 0 1.0 6.0 0.01 0.06 0.06 92 1010.4
20260509211559 44 152 1.0 9.0 0.01 0.06 0.06 92 1010.3
20260509211059 44 100 2.0 9.0 0.01 0.06 0.06 91 1010.4
20260509210559 44 100 0.0 6.0 0.01 0.06 0.06 91 1010.3
20260509210103 44 124 2.0 6.0 0.01 0.06 0.06 91 1010.3
20260509205556 44 0 1.0 6.0 0.01 0.06 0.06 91 1010.4
20260509205100 44 179 1.0 6.0 0.01 0.06 0.06 91 1010.4
20260509204602 44 153 0.0 4.0 0.00 0.05 0.05 91 1010.4
20260509204058 44 0 0.0 5.0 0.00 0.05 0.05 91 1010.4
20260509203557 44 0 0.0 7.0 0.00 0.05 0.05 91 1010.5
20260509203059 44 113 1.0 7.0 0.00 0.05 0.05 91 1010.5
20260509202557 44 0 1.0 4.0 0.00 0.05 0.05 91 1010.6
20260509202058 44 61 0.0 6.0 0.00 0.05 0.05 91 1010.6
20260509201559 44 0 0.0 6.0 0.00 0.05 0.05 91 1010.7
20260509201057 44 211 0.0 6.0 0.00 0.05 0.05 91 1010.8
20260509200557 44 242 0.0 4.0 0.00 0.05 0.05 91 1010.7
20260509200104 44 0 0.0 4.0 0.00 0.05 0.05 90 1010.8
20260509195559 44 190 0.0 3.0 0.00 0.05 0.05 90 1010.8
20260509195058 44 0 0.0 4.0 0.00 0.05 0.05 91 1010.9
20260509194558 44 217 0.0 5.0 0.00 0.05 0.05 91 1011.0
20260509194058 44 235 1.0 5.0 0.00 0.05 0.05 90 1011.0
20260509193559 44 221 0.0 5.0 0.00 0.05 0.05 90 1010.9
20260509193126 44 26 0.0 5.0 0.00 0.05 0.05 90 1010.9
20260509192557 44 185 0.0 5.0 0.00 0.05 0.05 90 1011.0
20260509192059 44 92 0.0 2.0 0.00 0.05 0.05 90 1011.0
20260509191615 44 0 0.0 5.0 0.00 0.05 0.05 90 1011.0
20260509191057 44 0 1.0 5.0 0.00 0.05 0.05 90 1011.0
20260509190557 44 0 0.0 9.0 0.00 0.05 0.05 90 1011.0
20260509190117 44 0 1.0 9.0 0.00 0.05 0.05 90 1011.0
20260509185557 44 178 1.0 6.0 0.00 0.05 0.05 90 1010.9
20260509185058 44 0 1.0 6.0 0.00 0.05 0.05 90 1011.0
20260509184558 44 113 0.0 3.0 0.00 0.05 0.05 90 1011.1
20260509184110 44 0 0.0 4.0 0.00 0.05 0.05 90 1011.2
20260509183559 44 0 0.0 4.0 0.00 0.05 0.05 90 1011.3
20260509183104 44 0 1.0 4.0 0.01 0.05 0.05 90 1011.3
20260509182557 44 0 0.0 4.0 0.01 0.05 0.05 90 1011.3
20260509182057 44 222 1.0 4.0 0.02 0.05 0.05 90 1011.4
20260509181602 44 196 1.0 4.0 0.02 0.05 0.05 90 1011.4
20260509181058 44 0 0.0 4.0 0.02 0.05 0.05 90 1011.4
20260509180557 44 235 1.0 6.0 0.03 0.05 0.05 90 1011.5
20260509180100 44 0 1.0 6.0 0.03 0.05 0.05 90 1011.6
20260509175557 44 90 1.0 6.0 0.03 0.05 0.05 90 1011.5
20260509175058 44 99 0.0 7.0 0.03 0.05 0.05 90 1011.6
20260509174611 44 199 1.0 7.0 0.03 0.05 0.05 90 1011.6
20260509174059 44 0 1.0 8.0 0.04 0.05 0.05 89 1011.8
20260509173557 44 100 1.0 8.0 0.04 0.05 0.05 89 1011.7
20260509173109 44 99 1.0 6.0 0.03 0.04 0.04 89 1011.8
20260509172600 44 113 1.0 9.0 0.03 0.04 0.04 89 1011.8
20260509172057 44 221 1.0 9.0 0.02 0.03 0.03 89 1011.9
20260509171622 44 63 0.0 6.0 0.03 0.03 0.03 89 1012.0
20260509171056 44 222 0.0 5.0 0.03 0.03 0.03 88 1012.0
20260509170558 44 0 0.0 5.0 0.02 0.02 0.02 88 1012.0
20260509170105 44 126 1.0 5.0 0.02 0.02 0.02 88 1012.2
20260509165557 44 84 0.0 6.0 0.02 0.02 0.02 88 1012.0
20260509165057 44 223 0.0 6.0 0.02 0.02 0.02 87 1012.2
20260509164608 44 212 1.0 6.0 0.01 0.01 0.01 87 1012.2
20260509164058 44 0 1.0 7.0 0.01 0.01 0.01 86 1012.3
20260509163557 44 196 2.0 7.0 0.01 0.01 0.01 86 1012.2
20260509163110 44 0 1.0 7.0 0.01 0.01 0.01 85 1012.2
20260509162558 44 94 0.0 4.0 0.01 0.01 0.01 84 1012.4
20260509162057 44 88 1.0 4.0 0.01 0.01 0.01 83 1012.5
20260509161609 45 71 1.0 4.0 0.00 0.00 0.00 81 1012.5
20260509161057 45 129 1.0 6.0 0.00 0.00 0.00 81 1012.5
20260509160558 45 109 1.0 6.0 0.00 0.00 0.00 78 1012.6
20260509160059 46 237 2.0 9.0 0.00 0.00 0.00 76 1012.5
20260509155557 46 207 2.0 9.0 0.00 0.00 0.00 74 1012.6
20260509155057 47 184 1.0 8.0 0.00 0.00 0.00 73 1012.6
20260509154607 47 213 0.0 7.0 0.00 0.00 0.00 73 1012.7
20260509154100 47 191 1.0 6.0 0.00 0.00 0.00 72 1012.7
20260509153558 47 355 2.0 6.0 0.00 0.00 0.00 71 1012.7
20260509153108 47 117 2.0 7.0 0.00 0.00 0.00 69 1012.7
20260509152557 48 217 1.0 7.0 0.00 0.00 0.00 68 1012.7
20260509152058 48 140 1.0 7.0 0.00 0.00 0.00 68 1012.8
20260509151607 48 142 1.0 7.0 0.00 0.00 0.00 67 1012.7
20260509151100 48 276 2.0 8.0 0.00 0.00 0.00 67 1012.8
20260509150558 48 343 1.0 8.0 0.00 0.00 0.00 67 1012.7